EW3608 Weather Reports


Display with metric or nautical units.
time (UTC)temp
F
wind
direction
speed
MPH
gust
MPH
rain 1hr
in
rain 24hr
in
rain mn
in
humidity
%
barometer
mb
20240525103502 45 0 0.0 0.0 0.00 0.00 0.00 69 1008.5
20240525102817 45 109 0.0 1.0 0.00 0.00 0.00 68 1008.4
20240525101914 45 0 0.0 0.0 0.00 0.00 0.00 68 1008.6
20240525100803 45 109 0.0 1.0 0.00 0.00 0.00 67 1008.4
20240525095902 45 109 0.0 3.0 0.00 0.00 0.00 66 1008.6
20240525095216 45 109 0.0 3.0 0.00 0.00 0.00 65 1008.5
20240525094103 46 109 1.0 2.0 0.00 0.00 0.00 65 1008.6
20240525093416 46 109 0.0 2.0 0.00 0.00 0.00 65 1008.7
20240525092302 46 109 0.0 2.0 0.00 0.00 0.00 67 1008.8
20240525091402 46 0 0.0 0.0 0.00 0.00 0.00 67 1008.8
20240525090502 46 109 0.0 1.0 0.00 0.00 0.00 66 1009.0
20240525085603 47 0 0.0 0.0 0.00 0.00 0.00 64 1009.0
20240525084913 47 0 0.0 0.0 0.00 0.00 0.00 64 1009.1
20240525084015 47 109 0.0 2.0 0.00 0.00 0.00 63 1009.2
20240525083112 48 0 0.0 0.0 0.00 0.00 0.00 62 1009.1
20240525082215 48 109 0.0 1.0 0.00 0.00 0.00 62 1009.2
20240525081103 49 109 0.0 1.0 0.00 0.00 0.00 60 1009.4
20240525080202 50 0 0.0 0.0 0.00 0.00 0.00 59 1009.5
20240525075302 50 109 0.0 1.0 0.00 0.00 0.00 58 1009.8
20240525074614 51 0 0.0 0.0 0.00 0.00 0.00 57 1009.9
20240525073502 51 0 0.0 0.0 0.00 0.00 0.00 55 1010.0
20240525072814 51 0 0.0 0.0 0.00 0.00 0.00 54 1010.1
20240525071702 51 0 0.0 0.0 0.00 0.00 0.00 56 1010.3
20240525070802 52 0 0.0 0.0 0.00 0.00 0.00 54 1010.5
20240525065903 52 0 0.0 0.0 0.00 0.00 0.00 55 1010.7
20240525065003 52 0 0.0 0.0 0.00 0.00 0.00 54 1010.9
20240525064102 52 0 0.0 1.0 0.00 0.00 0.00 52 1011.1
20240525063413 53 109 0.0 1.0 0.00 0.00 0.00 53 1011.1
20240525062515 53 0 0.0 0.0 0.00 0.00 0.00 52 1011.3
20240525061612 54 0 0.0 0.0 0.00 0.00 0.00 50 1011.4
20240525060715 54 0 0.0 0.0 0.00 0.00 0.00 48 1011.4
20240525055602 55 109 0.0 1.0 0.00 0.00 0.00 47 1011.5
20240525054702 55 109 0.0 3.0 0.00 0.00 0.00 46 1011.5
20240525054012 55 109 0.0 2.0 0.00 0.00 0.00 46 1011.7
20240525052902 56 109 0.0 1.0 0.00 0.00 0.00 45 1011.6
20240525052217 56 109 0.0 2.0 0.00 0.00 0.00 44 1011.8
20240525051314 56 109 0.0 1.0 0.00 0.00 0.00 43 1012.0
20240525050202 57 0 0.0 0.0 0.00 0.00 0.00 42 1012.1
20240525045514 57 132 1.0 4.0 0.00 0.00 0.00 41 1012.2
20240525044616 57 236 0.0 2.0 0.00 0.00 0.00 41 1012.3
20240525043713 57 236 0.0 3.0 0.00 0.00 0.00 41 1012.3
20240525042816 58 236 0.0 3.0 0.00 0.00 0.00 39 1012.3
20240525041913 58 236 1.0 4.0 0.00 0.00 0.00 39 1012.6
20240525041015 58 236 1.0 4.0 0.00 0.00 0.00 39 1012.4
20240525040113 58 236 0.0 3.0 0.00 0.00 0.00 36 1012.3
20240525035215 59 236 0.0 3.0 0.00 0.00 0.00 35 1012.1
20240525034102 60 236 0.0 3.0 0.00 0.00 0.00 34 1012.0
20240525033202 60 236 1.0 3.0 0.00 0.00 0.00 33 1012.0
20240525032303 61 236 1.0 2.0 0.00 0.00 0.00 32 1011.9
20240525031615 62 236 0.0 5.0 0.00 0.00 0.00 30 1011.9
20240525030712 62 236 1.0 5.0 0.00 0.00 0.00 30 1011.7
20240525025814 62 236 2.0 5.0 0.00 0.00 0.00 30 1011.6
20240525024911 63 236 1.0 4.0 0.00 0.00 0.00 29 1011.7
20240525024014 64 236 2.0 10.0 0.00 0.00 0.00 29 1011.8
20240525023116 64 244 5.0 15.0 0.00 0.00 0.00 27 1011.8
20240525022002 65 253 7.0 21.0 0.00 0.00 0.00 27 1011.9
20240525021102 65 247 7.0 21.0 0.00 0.00 0.00 26 1011.8
20240525020202 66 252 8.0 20.0 0.00 0.00 0.00 25 1011.6
20240525015516 66 248 8.0 20.0 0.00 0.00 0.00 24 1011.5
20240525014613 67 247 6.0 20.0 0.00 0.00 0.00 23 1011.4
20240525013715 67 260 6.0 18.0 0.00 0.00 0.00 22 1011.3
20240525012602 68 257 6.0 14.0 0.00 0.00 0.00 20 1011.2
20240525011703 69 254 6.0 15.0 0.00 0.00 0.00 19 1011.1
20240525011012 70 255 6.0 17.0 0.00 0.00 0.00 19 1011.1
20240525005903 71 243 7.0 17.0 0.00 0.00 0.00 18 1011.0
20240525005212 71 248 6.0 14.0 0.00 0.00 0.00 19 1010.9
20240525004102 72 234 5.0 12.0 0.00 0.00 0.00 17 1010.8
20240525003202 72 204 6.0 12.0 0.00 0.00 0.00 17 1010.7
20240525002302 73 232 5.0 14.0 0.00 0.00 0.00 17 1010.7
20240525001616 73 253 4.0 10.0 0.00 0.00 0.00 15 1010.7
20240525000714 74 273 4.0 11.0 0.00 0.00 0.00 15 1010.8
20240524235816 74 262 5.0 15.0 0.00 0.00 0.00 16 1010.7
20240524234913 74 270 5.0 11.0 0.00 0.00 0.00 14 1010.8
20240524234016 74 269 4.0 15.0 0.00 0.00 0.00 15 1010.8
20240524232903 75 241 3.0 8.0 0.00 0.00 0.00 15 1010.8
20240524232215 74 211 4.0 12.0 0.00 0.00 0.00 15 1010.9
20240524231102 72 93 3.0 9.0 0.00 0.00 0.00 17 1010.9
20240524230415 72 78 2.0 9.0 0.00 0.00 0.00 20 1011.1
20240524225302 72 99 3.0 8.0 0.00 0.00 0.00 20 1010.9
20240524224402 71 88 3.0 9.0 0.00 0.00 0.00 20 1011.1
20240524223502 71 84 3.0 9.0 0.00 0.00 0.00 23 1011.1
20240524222814 70 83 3.0 11.0 0.00 0.00 0.00 22 1011.2
20240524221917 70 84 4.0 11.0 0.00 0.00 0.00 21 1011.0
20240524220802 70 82 2.0 9.0 0.00 0.00 0.00 22 1011.4
20240524215902 69 84 4.0 9.0 0.00 0.00 0.00 23 1011.4
20240524215214 69 89 3.0 9.0 0.00 0.00 0.00 22 1011.5
20240524214316 69 95 4.0 13.0 0.00 0.00 0.00 21 1011.5
20240524213413 70 103 4.0 13.0 0.00 0.00 0.00 22 1011.6
20240524212516 70 106 2.0 8.0 0.00 0.00 0.00 22 1011.8
20240524211402 69 105 2.0 8.0 0.00 0.00 0.00 21 1011.8
20240524210716 68 90 3.0 9.0 0.00 0.00 0.00 22 1012.0
20240524205602 69 89 2.0 8.0 0.00 0.00 0.00 22 1012.1
20240524204702 68 93 2.0 8.0 0.00 0.00 0.00 22 1012.3
20240524204012 68 109 3.0 10.0 0.00 0.00 0.00 23 1012.5
20240524203115 68 72 2.0 9.0 0.00 0.00 0.00 21 1012.3
20240524202003 68 74 2.0 9.0 0.00 0.00 0.00 23 1012.6
20240524201102 69 105 3.0 9.0 0.00 0.00 0.00 24 1012.7
20240524200412 68 95 3.0 10.0 0.00 0.00 0.00 22 1012.8
20240524195302 67 97 4.0 10.0 0.00 0.00 0.00 25 1012.8
20240524194402 67 126 2.0 9.0 0.00 0.00 0.00 23 1013.0
20240524193714 66 94 4.0 11.0 0.00 0.00 0.00 24 1013.1
20240524192603 67 81 3.0 9.0 0.00 0.00 0.00 25 1013.2
20240524191703 66 74 3.0 11.0 0.00 0.00 0.00 26 1013.3
20240524190803 66 112 3.0 8.0 0.00 0.00 0.00 26 1013.4
20240524185903 64 68 3.0 10.0 0.00 0.00 0.00 26 1013.6
20240524185002 65 84 3.0 9.0 0.00 0.00 0.00 25 1013.7
20240524184313 65 92 3.0 8.0 0.00 0.00 0.00 26 1013.7
20240524183415 64 74 3.0 11.0 0.00 0.00 0.00 27 1013.8
20240524182302 64 78 2.0 11.0 0.00 0.00 0.00 27 1013.9
20240524181615 63 100 4.0 10.0 0.00 0.00 0.00 28 1014.0
20240524180712 63 83 4.0 9.0 0.00 0.00 0.00 27 1014.2
20240524175602 63 128 2.0 6.0 0.00 0.00 0.00 28 1014.4
20240524174702 62 96 3.0 8.0 0.00 0.00 0.00 27 1014.4
20240524174014 62 113 4.0 10.0 0.00 0.00 0.00 29 1014.5
20240524173112 62 98 3.0 10.0 0.00 0.00 0.00 30 1014.4
20240524172002 61 84 4.0 9.0 0.00 0.00 0.00 28 1014.5
20240524171311 61 84 3.0 13.0 0.00 0.00 0.00 28 1014.6
20240524170202 61 118 3.0 7.0 0.00 0.00 0.00 29 1014.8
20240524165302 60 97 4.0 10.0 0.00 0.00 0.00 27 1014.8
20240524164613 60 91 3.0 10.0 0.00 0.00 0.00 29 1014.9
20240524163502 59 92 3.0 10.0 0.00 0.00 0.00 28 1015.0
20240524162813 59 81 4.0 10.0 0.00 0.00 0.00 29 1015.2
20240524161702 59 100 3.0 8.0 0.00 0.00 0.00 30 1015.2
20240524161013 58 119 3.0 8.0 0.00 0.00 0.00 30 1015.3
20240524160115 57 81 4.0 9.0 0.00 0.00 0.00 31 1015.3
20240524155002 58 100 3.0 10.0 0.00 0.00 0.00 30 1015.4
20240524154315 57 112 3.0 10.0 0.00 0.00 0.00 29 1015.4
20240524153202 57 103 4.0 10.0 0.00 0.00 0.00 31 1015.3
20240524152302 56 103 4.0 11.0 0.00 0.00 0.00 32 1015.4
20240524151402 56 111 3.0 9.0 0.00 0.00 0.00 32 1015.4
20240524150502 55 119 3.0 9.0 0.00 0.00 0.00 34 1015.2
20240524145602 54 92 3.0 9.0 0.00 0.00 0.00 35 1015.4
20240524144914 54 96 3.0 9.0 0.00 0.00 0.00 34 1015.5
20240524143802 54 104 4.0 11.0 0.00 0.00 0.00 34 1015.4
20240524142902 54 122 2.0 11.0 0.00 0.00 0.00 34 1015.3
20240524142216 53 138 2.0 7.0 0.00 0.00 0.00 36 1015.2
20240524141102 53 135 2.0 8.0 0.00 0.00 0.00 37 1015.1
20240524140203 52 265 1.0 6.0 0.00 0.00 0.00 38 1015.1
20240524135513 52 271 0.0 2.0 0.00 0.00 0.00 40 1015.2
20240524134615 50 271 0.0 2.0 0.00 0.00 0.00 42 1015.0
20240524133502 47 271 0.0 3.0 0.00 0.00 0.00 44 1015.0
20240524132815 46 271 0.0 3.0 0.00 0.00 0.00 46 1014.9
20240524131702 45 280 1.0 6.0 0.00 0.00 0.00 47 1015.0
20240524130802 44 342 1.0 6.0 0.00 0.00 0.00 48 1014.9
20240524130112 44 347 0.0 3.0 0.00 0.00 0.00 51 1015.0
20240524125002 42 347 0.0 2.0 0.00 0.00 0.00 57 1015.0
20240524124312 41 347 0.0 1.0 0.00 0.00 0.00 60 1014.8
20240524123203 39 0 0.0 0.0 0.00 0.00 0.00 60 1014.8
20240524122303 38 0 0.0 0.0 0.00 0.00 0.00 64 1014.8
20240524121402 37 347 0.0 1.0 0.00 0.00 0.00 67 1014.8
20240524120502 36 347 1.0 3.0 0.00 0.00 0.00 69 1014.7
20240524115602 36 0 0.0 0.0 0.00 0.00 0.00 68 1014.6
20240524114702 37 347 0.0 1.0 0.00 0.00 0.00 66 1014.5
20240524114013 37 347 0.0 1.0 0.00 0.00 0.00 64 1014.5
20240524112902 38 347 0.0 2.0 0.00 0.00 0.00 62 1014.4
20240524112213 38 347 0.0 2.0 0.00 0.00 0.00 59 1014.4
20240524111102 39 0 0.0 1.0 0.00 0.00 0.00 57 1014.4
20240524110412 39 0 0.0 0.0 0.00 0.00 0.00 57 1014.2
20240524105303 39 347 1.0 4.0 0.00 0.00 0.00 57 1014.1
20240524104402 38 347 1.0 4.0 0.00 0.00 0.00 58 1013.9